Weather Roundup
Issued by NWS

Home | Current Version | Previous Version | Graphics & Text | Print | Product List | Glossary Off
Versions: 1 2 3 4 5 6 7 8 9 10 11 12 13 14 15 16 17 18 19 20 21 22 23 24 25 26 27 28 29 30 31 32 33 34 35 36 37 38 39 40 41 42 43 44 45 46 47 48 49 50

560
NZUS93 KARX 240659
HRRWXR

CURRENT HOURLY OBSERVATIONS ACROSS
MUCH OF THE UPPER MISSISSIPPI VALLEY
NATIONAL WEATHER SERVICE LA CROSSE WI
200 AM CDT TUE MAY 24 2016


...SOUTHEAST MINNESOTA...


CITY           SKY/WX    TMP DP  RH WIND       PRES   REMARKS
ROCHESTER      CLOUDY    66  61  84 SW10      29.86R
ROCHESTER/MAYO CLOUDY    66  62  87 SW8       29.85F
WINONA         LGT RAIN  68  63  83 E3        29.83F
AUSTIN         CLOUDY    64  61  88 S5        29.85S
ALBERT LEA     DRIZZLE   66  59  77 S3        29.84S
DODGE CENTER   LGT RAIN  64  61  88 SW10      29.84F
PRESTON        CLOUDY    63  60  91 S6        29.85F
OWATONNA       CLOUDY    66  59  77 S9        29.82F
FARIBAULT      CLOUDY    66  61  82 S5        29.82F
$$

...ELSEWHERE IN MINNESOTA...


CITY           SKY/WX    TMP DP  RH WIND       PRES   REMARKS
MINNEAPOLIS    CLOUDY    67  61  81 S6        29.80S
INTNL FALLS    FOG       50  49  96 CALM      29.75R VSB 1/4
DULUTH         MOCLDY    60  59  96 SE5       29.79S
RED WING       LGT RAIN  64  63  94 CALM      29.81F
REDWOOD FALLS  MOCLDY    63  60  90 S12       29.77S
MANKATO        CLOUDY    66  59  77 S8        29.81F
WORTHINGTON    CLOUDY    63  61  93 S13       29.81R
FAIRMONT       CLOUDY    64  59  82 S12       29.80S
$$

...SOUTHWEST WISCONSIN...


CITY           SKY/WX    TMP DP  RH WIND       PRES   REMARKS
LA CROSSE      CLOUDY    67  60  78 E6        29.84F
PRAIRIE DU CHI CLOUDY    65  51  59 CALM      29.88R
BOSCOBEL       CLOUDY    58  52  80 CALM      29.88
LONE ROCK      NOT AVBL
PLATTEVILLE    PTCLDY    64  49  58 S9        29.90S
FORT MC COY    CLOUDY    64  56  78 CALM      29.87S
CAMP DOUGLAS   CLOUDY    58  57  96 SE3       29.87R
MAUSTON-NEW LI CLOUDY    69  48  46 SW6       29.86S
VIROQUA        FAIR      67  49  52 S9        29.89S
WIS DELLS      CLOUDY    62  46  55 CALM      29.89S
$$

...ELSEWHERE IN WISCONSIN...


CITY           SKY/WX    TMP DP  RH WIND       PRES   REMARKS
MILWAUKEE      PTCLDY    61  40  45 SW5       29.92S
MADISON        PTCLDY    61  49  64 SW3       29.90S
GREEN BAY      CLEAR     63  42  46 S8        29.88S
EAU CLAIRE     CLOUDY    65  62  90 SE5       29.83F
BLACK RVR FLS  PTSUNNY   61  55  79 CALM      29.86R
MEDFORD        LGT RAIN  62  60  93 W3        29.88S
WAUSAU         MOCLDY    63  52  67 SE3       29.86F
WIS RAPIDS     CLOUDY    58  48  69 CALM      29.88F
MARSHFIELD     MOCLDY    63  53  70 CALM      29.86F
RICE LAKE      PTCLDY    65  57  77 CALM      29.84F
$$

...NORTHEAST IOWA...


CITY           SKY/WX    TMP DP  RH WIND       PRES   REMARKS
WATERLOO       CLOUDY    66  53  63 S6        29.86F
DUBUQUE        MOCLDY    64  49  57 SW10      29.91R
DECORAH        CLOUDY    68  54  60 S7        29.87S
MASON CITY     MOCLDY    64  60  87 S10       29.85F
CHARLES CITY   CLOUDY    64  63  94 S7        29.87F
OELWEIN        CLOUDY    68  54  60 S9        29.89S
$$

...ELSEWHERE IN IOWA...


CITY           SKY/WX    TMP DP  RH WIND       PRES   REMARKS
DES MOINES     TSTM      67  62  84 SW7       29.87S
IOWA CITY      CLOUDY    64  54  69 SE3       29.91S
FORT DODGE     MOCLDY    64  57  77 S9        29.86S
MARSHALLTOWN   CLOUDY    63  54  72 CALM      29.86F
CEDAR RAPIDS   MOCLDY    66  54  65 S8        29.88F
$$

...NORTHERN ILLINOIS...


CITY           SKY/WX    TMP DP  RH WIND       PRES   REMARKS
CHICAGO-OHARE  PTCLDY    60  43  53 S8        29.94S
CHICAGO-MIDWAY MOCLDY    68  42  38 S6        29.95S
MOLINE         MOCLDY    67  48  50 CALM      29.91S
ROCKFORD       MOCLDY    63  48  58 S5        29.95R
PEORIA         PTCLDY    63  50  62 CALM      29.96R
$$

NOTE: "FAIR" INDICATES FEW OR NO CLOUDS BELOW 12,000 FEET WITH NO
SIGNIFICANT WEATHER AND/OR OBSTRUCTIONS TO VISIBILITY. WIND
SPEEDS ARE IN MILES-PER-HOUR.




USA.gov is the U.S. government's official web portal to all federal, state and local government web resources and services.